Regional Weather Roundup
Issued by NWS Charleston, SC

Current Version | Previous Version | Graphics & Text | Print | Product List | Glossary On
Versions: 1 2 3 4 5 6 7 8 9 10 11 12 13 14 15 16 17 18 19 20 21 22 23 24 25 26 27 28 29 30 31 32 33 34 35 36 37 38 39 40 41 42 43 44 45 46 47 48 49 50
000 ASUS42 KCHS 011512 RWRCHS REGIONAL WEATHER ROUNDUP NATIONAL WEATHER SERVICE CHARLESTON SC 1100 AM EDT SAT AUG 01 2015 NOTE: "FAIR" INDICATES FEW OR NO CLOUDS BELOW 12,000 FEET WITH NO SIGNIFICANT WEATHER AND/OR OBSTRUCTIONS TO VISIBILITY. NOT ALL STATIONS ARE QUALITY CONTROLLED BY THE NATIONAL WEATHER SERVICE. USE DATA WITH CAUTION...ESPECIALLY DEWPOINT OBSERVATIONS. SCZ027-030-031-034>040-042>050-011600- ...SOUTHEAST SOUTH CAROLINA... CITY SKY/WX TMP DP RH WIND PRES REMARKS N CHARLESTON PTSUNNY 85 73 67 N3 29.93S HX 91 WATERFRONT PRK N/A 84 78 82 CALM 29.91S HX 95 MOUNT PLEASANT PTSUNNY 84 77 79 CALM 29.94R HX 94 JOHNS ISLAND PTSUNNY 84 79 84 CALM 29.93S HX 96 PINOPOLIS NOT AVBL MONCKS CORNER PTSUNNY 86 75 70 CALM 29.94R HX 95 SUMMERVILLE FAIR 86 77 74 N3 29.94S HX 97 BEAUFORT MCAS SUNNY 85 76 74 CALM 29.93S HX 94 BEAUFORT ARPT FAIR 82 77 83 CALM 29.92F HX 91 HILTON HEAD IS MOSUNNY 82 73 74 NW3 29.95S WALTERBORO SUNNY 86 73 66 CALM 29.94S HX 93 ALLENDALE PTSUNNY 86 75 70 N5 29.94R HX 95 ...SOUTHERN MIDLANDS AND PEE DEE... CITY SKY/WX TMP DP RH WIND PRES REMARKS GEORGETOWN NOT AVBL KINGSTREE NOT AVBL ORANGEBURG MOSUNNY 87 70 56 NE7 29.95S HX 92 BARNWELL DRIZZLE 79 77 94 W3 29.96S AIKEN PTSUNNY 86 59 39 NE13 29.99F MANNING RAIN 86 68 54 N7 29.94S COLUMBIA MOSUNNY 89 62 40 NE10 29.95S SUMTER SUNNY 89 65 45 NE9 29.93S HX 91 FLORENCE SUNNY 88 68 51 VRB6 29.95S HX 91 MYRTLE BEACH MOSUNNY 84 72 65 SE12 29.97R N MYRTLE BEACH MOSUNNY 84 73 69 SE7 29.95R HX 90 $$ GAZ063-065-086>088-099>101-113>116-118-119-134>141-150-011600- ...SOUTHEAST GEORGIA... CITY SKY/WX TMP DP RH WIND PRES REMARKS SAVANNAH ARPT PTSUNNY 82 73 74 CALM 29.94S HUNTER AAF MOSUNNY 84 78 81 N1 29.92R HX 94 FORT STEWART NOT AVBL STATESBORO CLOUDY 84 78 83 CALM 29.94S HX 96 SYLVANIA MOSUNNY 85 77 76 CALM 29.95R HX 95 CLAXTON NOT AVBL ...CSRA...CENTRAL AND FAR SOUTHEAST GEORGIA... CITY SKY/WX TMP DP RH WIND PRES REMARKS THOMSON PTSUNNY 84 67 55 E8 30.01R AUGUSTA-BUSH PTSUNNY 85 73 67 E5 29.94S HX 91 AUGUSTA-DANIEL MOSUNNY 86 65 49 E7 29.96S SWAINSBORO PTSUNNY 88 77 70 CALM 29.96R HX 100 VIDALIA SUNNY 81 73 78 CALM 29.95S EASTMAN FAIR 80 80 99 CALM 29.97S HX 90 HAZLEHURST PTSUNNY 83 78 82 CALM 29.94R HX 93 ALMA CLOUDY 81 75 82 CALM 29.94R WAYCROSS CLOUDY 82 80 91 CALM 29.94R HX 93 JESUP CLOUDY 81 79 94 CALM 29.95R BAXLEY CLOUDY 82 77 83 CALM 29.94R HX 91 BRUNSWICK CLOUDY 81 75 83 CALM 29.95R SAINT SIMONS CLOUDY 81 74 79 SW8 29.94R $$ SCZ027-028-034-036>038-045-046-048>050-GAZ119-141-011600- ...LAKE AND SUPPLEMENTAL COASTAL OBSERVATIONS... STATION/POSITION TIME TEMP WIND PRES WAVE SWELL AIR SEA DIR/SP/G HT/PER HT/PER/DIR (UTC) (F) (DEG/KT/KT) (MB) (FT/S) (FT/S/D) UPR LAKE MARION NOT AVBL WINYAH BAY 1345 79 330/ 2 1013.0 LAKE MURRAY 1400 82 40/ 4/ 8 1013.9S ACE BASIN NERRS NOT AVBL FORT PULASKI 1400 80 85 260/ 3/ 4 1014.0F SAPELO ISLAND 1400 78 220/ 3 1013.0F $$ ANZ835-935-AMZ111-154-330-350-352-354-370-450-454-472-011600- ...C-MAN AND BUOY OBSERVATIONS... STATION/POSITION TIME TEMP WIND PRES WAVE SWELL AIR SEA DIR/SP/G HT/PER HT/PER/DIR (UTC) (F) (DEG/KT/KT) (MB) (FT/S) (FT/S/D) BUOY 41004 1450 76 84 70/ 16/ 19 1014.0R 3/ 7 2/13 BUOY 41008 1450 80 82 250/ 6/ 8 1014.0R 3/ 6 2/150/ 6 FOLLY BEACH CMAN 1400 82 300/ 2/ 4 1013.6F CAPERS NEARSHORE 1408 78 130/ 12/ 14 1013.8R FRIPP NEARSHORE 1400 81 270/ 8/ 10 1013.4R STATION/POSITION TIME TEMP WIND PRES WAVE SWELL AIR SEA DIR/SP/G HT/PER HT/PER/DIR (UTC) (F) (DEG/KT/KT) (MB) (FT/S) (FT/S/D) 5E ST. MARYS GA 1421 82 N/A 3/ 6 FRYING PAN BUOY 1450 80 83 180/ 10/ 12 1014.2S 4/ 7 3/160/ 7 BUOY 41025 1450 78 85 140/ 17/ 21 1014.0R 4/ 7 3/140/ 7 CAPE LOOKOUT NC 1400 79 170/ 8/ 9 1013.1R BUOY 41002 1450 83 81 220/ 16/ 19 1016.5R 6/ 7 2/100/11 BUOY 41010 1420 80 84 180/ 14/ 16 1016.7R ST AUGUSTINE FL 1500 83 80 200/ 11/ 13 1014.7R $$

USA.gov is the U.S. government's official web portal to all federal, state and local government web resources and services.